When you browse on this site, cookies collect data to enhance your experience and personalize the content and advertising you see.
Visit our Privacy Policy to learn more. By continuing to use the site, you agree to this use of cookies and data.
  • Em Portugal
  • Lista de países
  • Para 7 dias
  • Temperatura da água
  • Mapa do tempo
  • Widgets de tempo
  • user-avatar
    Iniciar Sessão

    Previsão horária em São Miguel de Tucumán

    Hoje, 23 Outubro, Quarta-feira

    Tempo Temperatura Precipitação Vento Pressão Humidade
    00:00 +20°C° 0 mm 1 m/s 719 mmHg 52%
    01:00 +20°C° 0 mm 1 m/s 719 mmHg 54%
    02:00 +19°C° 0 mm 1 m/s 719 mmHg 58%
    03:00 +18°C° 0 mm 1 m/s 719 mmHg 60%
    04:00 +18°C° 0 mm 1 m/s 719 mmHg 63%
    05:00 +16°C° 0 mm 1 m/s 719 mmHg 66%
    06:00 +19°C° 0 mm 1 m/s 720 mmHg 60%
    07:00 +21°C° 0 mm 1 m/s 721 mmHg 55%
    08:00 +22°C° 0 mm 1 m/s 722 mmHg 49%
    09:00 +24°C° 0 mm 2 m/s 722 mmHg 44%
    10:00 +26°C° 0 mm 2 m/s 721 mmHg 40%
    11:00 +28°C° 0 mm 2 m/s 721 mmHg 35%
    12:00 +29°C° 0 mm 2 m/s 720 mmHg 33%
    13:00 +30°C° 0 mm 2 m/s 720 mmHg 32%
    14:00 +31°C° 0 mm 2 m/s 719 mmHg 30%
    15:00 +31°C° 0 mm 2 m/s 719 mmHg 30%
    16:00 +30°C° 0 mm 2 m/s 718 mmHg 31%
    17:00 +30°C° 0 mm 2 m/s 718 mmHg 31%
    18:00 +29°C° 0 mm 1 m/s 718 mmHg 35%
    19:00 +27°C° 0 mm 1 m/s 719 mmHg 39%
    20:00 +25°C° 0 mm 1 m/s 720 mmHg 43%
    21:00 +24°C° 0 mm 1 m/s 720 mmHg 45%
    22:00 +24°C° 0 mm 1 m/s 720 mmHg 48%
    23:00 +23°C° 0 mm 1 m/s 720 mmHg 50%

    Amanhã, 24 Outubro, Quinta-feira

    Tempo Temperatura Precipitação Vento Pressão Humidade
    00:00 +22°C° 0 mm 1 m/s 719 mmHg 53%
    01:00 +21°C° 0 mm 1 m/s 719 mmHg 55%
    02:00 +20°C° 0 mm 1 m/s 718 mmHg 58%
    03:00 +20°C° 0 mm 1 m/s 718 mmHg 60%
    04:00 +19°C° 0 mm 1 m/s 718 mmHg 62%
    05:00 +19°C° 0 mm 1 m/s 718 mmHg 64%
    06:00 +21°C° 0 mm 1 m/s 719 mmHg 58%
    07:00 +23°C° 0 mm 1 m/s 719 mmHg 52%
    08:00 +25°C° 0 mm 1 m/s 720 mmHg 46%
    09:00 +27°C° 0 mm 2 m/s 720 mmHg 41%
    10:00 +29°C° 0 mm 2 m/s 720 mmHg 35%
    11:00 +32°C° 0 mm 2 m/s 719 mmHg 30%
    12:00 +34°C° 0 mm 3 m/s 719 mmHg 27%
    13:00 +36°C° 0 mm 3 m/s 718 mmHg 25%
    14:00 +37°C° 0 mm 3 m/s 717 mmHg 23%
    15:00 +36°C° 0 mm 3 m/s 716 mmHg 24%
    16:00 +36°C° 0 mm 3 m/s 716 mmHg 24%
    17:00 +35°C° 0 mm 4 m/s 716 mmHg 25%
    18:00 +33°C° 0 mm 3 m/s 716 mmHg 30%
    19:00 +29°C° 0 mm 3 m/s 717 mmHg 35%
    20:00 +27°C° 0 mm 3 m/s 717 mmHg 40%
    21:00 +27°C° 0 mm 2 m/s 718 mmHg 41%
    22:00 +26°C° 0 mm 2 m/s 718 mmHg 42%
    23:00 +25°C° 0 mm 2 m/s 719 mmHg 43%

    Depois de amanhã, 25 Outubro, Sexta-feira

    Tempo Temperatura Precipitação Vento Pressão Humidade
    00:00 +25°C° 0 mm 2 m/s 718 mmHg 45%
    01:00 +24°C° 0 mm 1 m/s 718 mmHg 47%
    02:00 +23°C° 0 mm 1 m/s 718 mmHg 50%
    03:00 +22°C° 0 mm 1 m/s 718 mmHg 51%
    04:00 +22°C° 0 mm 1 m/s 718 mmHg 53%
    05:00 +21°C° 0 mm 1 m/s 719 mmHg 55%
    06:00 +23°C° 0 mm 1 m/s 720 mmHg 51%
    07:00 +25°C° 0 mm 2 m/s 720 mmHg 47%
    08:00 +27°C° 0 mm 2 m/s 721 mmHg 43%
    09:00 +29°C° 0 mm 2 m/s 721 mmHg 39%
    10:00 +31°C° 0 mm 2 m/s 721 mmHg 35%
    11:00 +34°C° 0 mm 2 m/s 720 mmHg 31%
    12:00 +35°C° 0 mm 2 m/s 720 mmHg 29%
    13:00 +36°C° 0 mm 2 m/s 719 mmHg 26%
    14:00 +38°C° 0 mm 3 m/s 718 mmHg 24%
    15:00 +37°C° 0 mm 3 m/s 717 mmHg 25%
    16:00 +36°C° 0 mm 4 m/s 717 mmHg 26%
    17:00 +36°C° 0 mm 4 m/s 716 mmHg 27%
    18:00 +34°C° 0 mm 4 m/s 716 mmHg 31%
    19:00 +32°C° 0 mm 4 m/s 717 mmHg 35%
    20:00 +29°C° 0 mm 4 m/s 717 mmHg 40%
    21:00 +28°C° 0 mm 3 m/s 717 mmHg 43%
    22:00 +27°C° 0 mm 3 m/s 717 mmHg 47%
    23:00 +26°C° 0 mm 2 m/s 717 mmHg 50%

    26 Outubro, Sábado

    Tempo Temperatura Precipitação Vento Pressão Humidade
    00:00 +26°C° 0 mm 2 m/s 717 mmHg 52%
    01:00 +25°C° 0 mm 2 m/s 716 mmHg 53%
    02:00 +25°C° 0 mm 2 m/s 715 mmHg 55%
    03:00 +24°C° 0 mm 1 m/s 715 mmHg 56%
    04:00 +24°C° 0 mm 1 m/s 715 mmHg 57%
    05:00 +23°C° 0 mm 1 m/s 715 mmHg 58%
    06:00 +25°C° 0 mm 1 m/s 715 mmHg 53%
    07:00 +27°C° 0 mm 1 m/s 715 mmHg 48%
    08:00 +29°C° 0 mm 1 m/s 715 mmHg 43%
    09:00 +32°C° 0 mm 2 m/s 714 mmHg 39%
    10:00 +35°C° 0 mm 2 m/s 714 mmHg 34%
    11:00 +38°C° 0 mm 2 m/s 713 mmHg 30%
    12:00 +39°C° 0 mm 2 m/s 712 mmHg 27%
    13:00 +41°C° 0 mm 2 m/s 711 mmHg 24%
    14:00 +43°C° 0 mm 2 m/s 710 mmHg 21%
    15:00 +43°C° 0 mm 2 m/s 710 mmHg 21%
    16:00 +42°C° 0 mm 2 m/s 709 mmHg 21%
    17:00 +42°C° 0 mm 2 m/s 709 mmHg 21%
    18:00 +39°C° 0 mm 2 m/s 710 mmHg 27%
    19:00 +36°C° 0 mm 2 m/s 710 mmHg 33%
    20:00 +32°C° 0 mm 2 m/s 711 mmHg 38%
    21:00 +32°C° 0 mm 2 m/s 711 mmHg 40%
    22:00 +31°C° 0 mm 2 m/s 711 mmHg 41%
    23:00 +31°C° 0 mm 1 m/s 712 mmHg 42%

    27 Outubro, Domingo

    Tempo Temperatura Precipitação Vento Pressão Humidade
    00:00 +30°C° 0 mm 1 m/s 711 mmHg 44%
    01:00 +30°C° 0 mm 1 m/s 711 mmHg 45%
    02:00 +29°C° 0 mm 1 m/s 710 mmHg 46%
    03:00 +29°C° 0 mm 1 m/s 711 mmHg 46%
    04:00 +28°C° 0 mm 2 m/s 711 mmHg 46%
    05:00 +27°C° 0 mm 2 m/s 711 mmHg 46%
    06:00 +28°C° 0 mm 3 m/s 712 mmHg 47%
    07:00 +29°C° 0 mm 3 m/s 712 mmHg 48%
    08:00 +29°C° 0 mm 4 m/s 713 mmHg 49%
    09:00 +32°C° 0 mm 4 m/s 713 mmHg 46%
    10:00 +34°C° 0 mm 4 m/s 713 mmHg 43%
    11:00 +36°C° 0 mm 4 m/s 713 mmHg 40%
    12:00 +37°C° 0 mm 3 m/s 713 mmHg 37%
    13:00 +38°C° 0 mm 3 m/s 712 mmHg 34%
    14:00 +39°C° 0 mm 3 m/s 712 mmHg 31%
    15:00 +39°C° 0 mm 3 m/s 711 mmHg 32%
    16:00 +38°C° 0 mm 3 m/s 711 mmHg 34%
    17:00 +38°C° 0 mm 3 m/s 710 mmHg 35%
    18:00 +35°C° 0 mm 2 m/s 711 mmHg 41%
    19:00 +32°C° 0 mm 1 m/s 711 mmHg 48%
    20:00 +30°C° 0 mm 1 m/s 712 mmHg 54%
    21:00 +29°C° 0 mm 1 m/s 712 mmHg 56%
    22:00 +27°C° 0 mm 0 m/s 712 mmHg 58%
    23:00 +26°C° 0 mm 0 m/s 712 mmHg 61%

    28 Outubro, Segunda-feira

    Tempo Temperatura Precipitação Vento Pressão Humidade
    00:00 +25°C° 0 mm 0 m/s 712 mmHg 63%
    01:00 +27°C° 0 mm 1 m/s 711 mmHg 66%
    02:00 +26°C° 0 mm 1 m/s 711 mmHg 68%
    03:00 +26°C° 0 mm 1 m/s 710 mmHg 70%
    04:00 +25°C° 0 mm 1 m/s 710 mmHg 72%
    05:00 +25°C° 0 mm 1 m/s 710 mmHg 74%
    06:00 +27°C° 0 mm 1 m/s 711 mmHg 66%
    07:00 +29°C° 0 mm 1 m/s 711 mmHg 59%
    08:00 +31°C° 0 mm 1 m/s 712 mmHg 52%
    09:00 +34°C° 0 mm 1 m/s 712 mmHg 46%
    10:00 +36°C° 0 mm 1 m/s 712 mmHg 40%
    11:00 +39°C° 0 mm 2 m/s 712 mmHg 34%
    12:00 +40°C° 0 mm 2 m/s 711 mmHg 32%
    13:00 +42°C° 0 mm 3 m/s 711 mmHg 29%
    14:00 +43°C° 0 mm 3 m/s 710 mmHg 27%
    15:00 +42°C° 0.2 mm 3 m/s 710 mmHg 29%
    16:00 +40°C° 0.2 mm 3 m/s 710 mmHg 31%
    17:00 +39°C° 0.2 mm 3 m/s 709 mmHg 32%
    18:00 +36°C° 0.9 mm 2 m/s 710 mmHg 43%
    19:00 +32°C° 0.9 mm 2 m/s 711 mmHg 54%
    20:00 +29°C° 0.9 mm 2 m/s 712 mmHg 64%
    21:00 +28°C° 1.3 mm 2 m/s 713 mmHg 70%
    22:00 +26°C° 1.3 mm 2 m/s 713 mmHg 76%
    23:00 +25°C° 1.3 mm 2 m/s 714 mmHg 82%

    29 Outubro, Terça-feira

    Tempo Temperatura Precipitação Vento Pressão Humidade
    00:00 +24°C° 0.3 mm 2 m/s 714 mmHg 83%
    01:00 +23°C° 0.3 mm 2 m/s 714 mmHg 83%
    02:00 +21°C° 0.3 mm 3 m/s 713 mmHg 84%
    03:00 +21°C° 0 mm 3 m/s 713 mmHg 83%
    04:00 +20°C° 0 mm 2 m/s 714 mmHg 82%
    05:00 +20°C° 0 mm 2 m/s 714 mmHg 81%
    06:00 +20°C° 0 mm 2 m/s 714 mmHg 80%
    07:00 +19°C° 0 mm 2 m/s 715 mmHg 78%
    08:00 +19°C° 0 mm 2 m/s 715 mmHg 77%
    09:00 +21°C° 0 mm 2 m/s 715 mmHg 70%
    10:00 +23°C° 0 mm 2 m/s 715 mmHg 64%
    11:00 +24°C° 0 mm 3 m/s 715 mmHg 58%
    12:00 +26°C° 0 mm 3 m/s 714 mmHg 54%
    13:00 +27°C° 0 mm 3 m/s 714 mmHg 51%
    14:00 +28°C° 0 mm 3 m/s 713 mmHg 47%
    15:00 +28°C° 0 mm 3 m/s 713 mmHg 49%
    16:00 +28°C° 0 mm 2 m/s 713 mmHg 50%
    17:00 +28°C° 0 mm 2 m/s 712 mmHg 52%
    18:00 +26°C° 0 mm 2 m/s 713 mmHg 59%
    19:00 +25°C° 0 mm 1 m/s 714 mmHg 65%
    20:00 +23°C° 0 mm 1 m/s 714 mmHg 72%
    21:00 +22°C° 0 mm 1 m/s 715 mmHg 74%
    22:00 +22°C° 0 mm 1 m/s 715 mmHg 76%
    23:00 +20°C° 0 mm 0 m/s 715 mmHg 78%
    Mostrar mais